Wichita, KS

11:20 AM CDT on October 18, 2017 (GMT -0500)
Wichita Eisenhower National Airport

Weather History for KICT - May, 2014

Change the Weather History Date:

Saturday, May 31, 2014

  Actual Average Record
Temperature  
Mean Temperature 76 °F 71 °F  
Max Temperature 85 °F 81 °F 100 °F (1934)
Min Temperature 67 °F 60 °F 44 °F (1975)
Degree Days  
Heating Degree Days 0 1  
Month to date heating degree days 73 80  
Since 1 July heating degree days 4939 4588  
Cooling Degree Days 11 7  
Month to date cooling degree days 234 110  
Year to date cooling degree days 267 136  
Growing Degree Days 25 (Base 50)    
Moisture  
Dew Point 65 °F    
Average Humidity 72    
Maximum Humidity 93    
Minimum Humidity 51    
Precipitation  
Precipitation 0.00 in 0.17 in 3.98 in (1908)
Month to date precipitation 4.06 4.57  
Year to date precipitation 6.07 11.86  
Snow  
Snow 0.00 in 0.00 in T in (2008)
Month to date snowfall 0.0 0.0  
Since 1 July snowfall 23.0 14.9  
Snow Depth 0.00 in    
Sea Level Pressure  
Sea Level Pressure 29.97 in    
Wind  
Wind Speed 8 mph (SE)    
Max Wind Speed 16 mph    
Max Gust Speed 21 mph    
Visibility 10 miles    
Events      
T = Trace of Precipitation, MM = Missing Value Source: NWS Daily Summary

Daily Weather History Graph

Daily Weather History Graph

Search for Another Location

Airport or City:

Trip Planner

Search our weather history database for the weather conditions in past years. The results will help you decide how hot, cold, wet, or windy it might be!

Date:

Astronomy

May. 31, 2014 Rise Set
Actual Time 6:10 AM CDT 8:45 PM CDT
Civil Twilight 5:39 AM CDT 9:15 PM CDT
Nautical Twilight 5:01 AM CDT 9:53 PM CDT
Astronomical Twilight 4:19 AM CDT 10:36 PM CDT
Moon 8:47 AM CDT (5/31) 11:05 PM CDT (5/31)
Length of Visible Light 15h 35m
Length of Day
14h 34m
Waxing Crescent, 8% of the Moon is Illuminated
May 31
Waxing Crescent
Jun 5
First Quarter
Jun 12
Full
Jun 19
Last Quarter
Jun 27
New

Hourly Weather History & Observations

Time (CDT) Temp. Heat Index Dew Point Humidity Pressure Visibility Wind Dir Wind Speed Gust Speed Precip Events Conditions
12:53 AM 70.0 °F - 64.9 °F 84% 29.99 in 10.0 mi Calm Calm - N/A   Clear
1:53 AM 69.1 °F - 64.9 °F 87% 29.97 in 10.0 mi ESE 8.1 mph - N/A   Partly Cloudy
2:53 AM 69.1 °F - 64.9 °F 87% 29.96 in 10.0 mi SE 6.9 mph - N/A   Clear
3:53 AM 69.8 °F - 64.4 °F 83% 30.00 in 10.0 mi ESE 5.8 mph - N/A   Clear
4:53 AM 66.9 °F - 64.0 °F 90% 29.97 in 10.0 mi ESE 4.6 mph - N/A   Clear
5:53 AM 66.9 °F - 64.0 °F 90% 29.99 in 10.0 mi ESE 5.8 mph - N/A   Partly Cloudy
6:53 AM 68.0 °F - 64.4 °F 88% 30.05 in 8.0 mi Calm Calm - N/A   Scattered Clouds
7:53 AM 70.0 °F - 64.9 °F 84% 30.01 in 9.0 mi SE 4.6 mph - N/A   Scattered Clouds
8:53 AM 72.0 °F - 66.0 °F 81% 30.01 in 9.0 mi South 8.1 mph - N/A   Mostly Cloudy
9:06 AM 72.0 °F - 66.0 °F 81% 30.05 in 9.0 mi SSE 6.9 mph - N/A   Mostly Cloudy
9:53 AM 73.4 °F - 66.2 °F 78% 30.05 in 10.0 mi South 6.9 mph - N/A   Mostly Cloudy
10:53 AM 77.0 °F - 66.9 °F 71% 30.00 in 10.0 mi SSE 8.1 mph - N/A   Mostly Cloudy
11:13 AM 77.0 °F - 66.2 °F 69% 30.03 in 10.0 mi ESE 9.2 mph - N/A   Mostly Cloudy
11:44 AM 77.0 °F - 64.9 °F 66% 30.02 in 10.0 mi East 9.2 mph - N/A   Mostly Cloudy
11:53 AM 79.0 °F - 66.0 °F 64% 29.99 in 10.0 mi ESE 10.4 mph - N/A   Mostly Cloudy
12:53 PM 79.0 °F - 64.9 °F 62% 29.98 in 10.0 mi SE 10.4 mph - N/A   Mostly Cloudy
1:53 PM 80.1 °F 81.9 °F 64.9 °F 60% 29.97 in 10.0 mi SE 11.5 mph - N/A   Mostly Cloudy
2:53 PM 81.0 °F 82.5 °F 64.0 °F 56% 29.94 in 10.0 mi ESE 5.8 mph - N/A   Mostly Cloudy
3:53 PM 82.0 °F 83.1 °F 63.0 °F 52% 29.93 in 10.0 mi SE 12.7 mph 17.3 mph N/A   Mostly Cloudy
4:53 PM 84.0 °F 85.4 °F 64.0 °F 51% 29.91 in 10.0 mi SE 10.4 mph - N/A   Scattered Clouds
5:53 PM 82.9 °F 84.0 °F 63.0 °F 51% 29.89 in 10.0 mi SSE 12.7 mph - N/A   Scattered Clouds
6:53 PM 82.0 °F 83.4 °F 64.0 °F 54% 29.88 in 10.0 mi ESE 12.7 mph - N/A   Scattered Clouds
7:53 PM 81.0 °F 82.2 °F 63.0 °F 54% 29.88 in 10.0 mi SSE 10.4 mph - N/A   Partly Cloudy
8:53 PM 77.0 °F - 64.0 °F 64% 29.89 in 10.0 mi SE 9.2 mph - N/A   Partly Cloudy
9:53 PM 75.0 °F - 64.0 °F 69% 29.90 in 10.0 mi SE 8.1 mph - N/A   Partly Cloudy
10:53 PM 75.0 °F - 64.9 °F 71% 29.91 in 10.0 mi SSE 10.4 mph - N/A   Clear
11:53 PM 73.0 °F - 64.9 °F 76% 29.92 in 10.0 mi SSE 8.1 mph - N/A   Clear